Regional Weather Roundup
Issued by NWS Little Rock, AR

Home | Current Version | Previous Version | Text Only | Print | Product List | Glossary Off
Versions: 1 2 3 4 5 6 7 8 9 10 11 12 13 14 15 16 17 18 19 20 21 22 23 24 25 26 27 28 29 30 31 32 33 34 35 36 37 38 39 40 41 42 43 44 45 46 47 48 49 50

000
ASUS44 KLZK 261405
RWRLZK

WEATHER ROUNDUP FOR ARKANSAS
NATIONAL WEATHER SERVICE LITTLE ROCK AR
800 AM CST THU FEB 26 2015

NOTE: "FAIR" INDICATES FEW OR NO CLOUDS BELOW 12,000 FEET WITH NO
SIGNIFICANT WEATHER AND/OR OBSTRUCTIONS TO VISIBILITY.

ARZ001-003-010-029-261500-
NORTHWEST ARKANSAS

CITY           SKY/WX    TMP DP  RH WIND       PRES   REMARKS
FAYETTEVILLE   CLOUDY    22  16  78 N15       30.19R WCI   9
FORT SMITH     CLOUDY    29  19  66 N15       30.21R WCI  18
HARRISON       CLOUDY    22  17  81 NW12      30.15R WCI  10
BENTONVILLE    CLOUDY    21  12  68 N16G25    30.21R WCI   7
ROGERS         FLURRIES  20  14  77 N12       30.21R WCI   8
SILOAM SPGS    CLOUDY    21  10  63 N18G28    30.22R WCI   6
HIGHFILL       FLURRIES  22  14  71 N21G29    30.20R WCI   6
SPRINGDALE     CLOUDY    41  16  36 NE15G26   30.21R
$$

ARZ004-005-016-261500-
NORTH CENTRAL ARKANSAS

CITY           SKY/WX    TMP DP  RH WIND       PRES   REMARKS
BATESVILLE     CLOUDY    30  25  80 NW10G22   30.09R WCI  21
FLIPPIN        CLOUDY    25  16  68 N12G18    30.16R WCI  14
MTN HOME       CLOUDY    23  18  81 N8G16     30.14R WCI  14
$$

ARZ040-041-261500-
WEST CENTRAL ARKANSAS

CITY           SKY/WX    TMP DP  RH WIND       PRES   REMARKS
MENA           CLOUDY    32  27  80 NW12      30.11R WCI  23
MOUNT IDA      CLOUDY    32  26  78 N8        30.07R WCI  25
$$

ARZ009-017-025-026-028-261500-
NORTHEAST ARKANSAS

CITY           SKY/WX    TMP DP  RH WIND       PRES   REMARKS
CORNING        FAIR      32  28  86 NW16      30.07R WCI  21
JONESBORO      CLOUDY    29  29 100 NW9       30.06R FOG     WCI  20
NEWPORT        CLOUDY    32  30  92 NW14      30.09R WCI  22
WALNUT RIDGE   SUNNY     30  25  80 NW14      30.08R WCI  20
BLYTHEVILLE    CLOUDY    31  30  96 NW3       30.05R FOG
NW BLYTHEVILLE CLOUDY    30  28  93 NW7       30.05  FOG     WCI  23
$$

ARZ022-023-033-042-044-261500-
CENTRAL ARKANSAS

CITY           SKY/WX    TMP DP  RH WIND       PRES   REMARKS
LITTLE ROCK    CLOUDY    32  28  85 NW10      30.09R WCI  24
N LITTLE ROCK  CLOUDY    31  31 100 NW9       30.09R WCI  22
JACKSONVILLE   PTSUNNY   30  30  99 W5        30.08R WCI  26
SEARCY         CLOUDY    29  28  96 CALM      30.09R
HOT SPRINGS    PTSUNNY   32  31  96 VRB3      30.08R FOG
RUSSELLVILLE   CLOUDY    33  25  72 NW15G22   30.11R WCI  23
CLINTON        CLOUDY    30  23  74 N8G20     30.13R WCI  23
$$

ARZ036-261500-
EAST ARKANSAS

CITY           SKY/WX    TMP DP  RH WIND       PRES   REMARKS
WEST MEMPHIS   CLOUDY    28  28 100 NW5       30.05R FOG     WCI  23
$$

ARZ050-053-066-070-073-261500-
SOUTHWEST ARKANSAS

CITY           SKY/WX    TMP DP  RH WIND       PRES   REMARKS
ARKADELPHIA    FAIR      29  29 100 CALM      30.10R FOG
CAMDEN         CLOUDY    28  28 100 CALM      30.10R FOG
TEXARKANA      PTSUNNY   30  29  96 NW9       30.10R WCI  22
EL DORADO      MOSUNNY   30  29  96 W3        30.09R
DE QUEEN       PTSUNNY   31  28  89 N6        30.10R WCI  25
$$

ARZ056-057-069-261500-
SOUTHEAST ARKANSAS

CITY           SKY/WX    TMP DP  RH WIND       PRES   REMARKS
PINE BLUFF     FOG       30  28  92 W6        30.09R VSB 3/4 WCI  24
STUTTGART      CLOUDY    28  27  93 CALM      30.08R VSB 1/4
MONTICELLO     CLOUDY    31  29  92 W3        30.08R FOG

$$





USA.gov is the U.S. government's official web portal to all federal, state and local government web resources and services.